Tiempo atmosférico en la estación meteorológica de Motril, Puerto, Granada (3 m.)



Fecha
DESCASC
Temp. máxima en grados centígrados (hora)
DESCASC
Temp. mínima en grados centígrados (hora)
DESCASC
Temp. media en grados centígrados
DESCASC
Racha de viento máxima en m/sg (hora)
DESCASC
Velocidad máxima media en intervalos de 10 minutos(hora)
DESCASC
Precipitaciones diarias en mm
DESCASC
Precipitaciones de 00:00 a 06:00 en mm
DESCASC
Precipitaciones de 06:00 a 12:00 en mm
DESCASC
Precipitaciones de 12:00 a 18:00 en mm
DESCASC
Precipitaciones de 18:00 a 24:00 en mm
DESCASC
31-03-2020 -- (--) -- (--) -- 13.33 (12:10) 8.33 (03:50) 19 14.8 2 2 0.2
30-03-2020 -- (--) -- (--) -- 5 (15:30) 2.78 (11:20) 0 0 0 0 0
29-03-2020 -- (--) -- (--) -- 4.72 (13:40) 2.78 (16:00) 0 0 0 0 0
28-03-2020 -- (--) -- (--) -- 10 (14:40) 8.06 (12:50) 0 0 0 0 0
27-03-2020 -- (--) -- (--) -- 10.83 (10:40) 7.5 (02:00) 0 0 0 0 0
26-03-2020 -- (--) -- (--) -- 13.33 (15:30) 8.33 (17:10) 0 0 0 0 0
25-03-2020 -- (--) -- (--) -- 5.83 (08:50) 3.61 (10:00) 5.2 2 3.2 0 0
24-03-2020 -- (--) -- (--) -- 8.61 (18:20) 5 (18:30) 0 0 0 0 0
23-03-2020 -- (--) -- (--) -- 12.22 (14:30) 8.61 (14:30) 2.8 0 0 2.8 0
22-03-2020 -- (--) -- (--) -- 5.83 (15:00) 3.89 (14:40) 11.4 10.4 1 0 0
21-03-2020 -- (--) -- (--) -- 12.22 (18:10) 7.22 (18:20) 23.2 12 5.6 0 5.6
20-03-2020 -- (--) -- (--) -- 11.67 (22:00) 8.33 (22:00) 0 0 0 0 0
19-03-2020 -- (--) -- (--) -- 7.5 (12:00) 3.33 (11:40) 0 0 0 0 0
18-03-2020 -- (--) -- (--) -- 17.78 (01:10) 12.78 (01:10) 0 0 0 0 0
17-03-2020 -- (--) -- (--) -- 16.11 (23:50) 11.11 (23:50) 0 0 0 0 0
16-03-2020 -- (--) -- (--) -- 15 (15:00) 8.61 (15:20) 0 0 0 0 0
15-03-2020 -- (--) -- (--) -- 5.83 (18:30) 4.72 (13:30) 0.8 0 0 0.6 0.2
14-03-2020 -- (--) -- (--) -- 6.39 (17:20) 3.89 (12:40) 0 0 0 0 0
13-03-2020 -- (--) -- (--) -- 9.72 (15:20) 7.78 (16:30) 0 0 0 0 0
12-03-2020 -- (--) -- (--) -- 4.72 (13:50) 3.06 (14:40) 0 0 0 0 0
11-03-2020 -- (--) -- (--) -- 7.78 (23:40) 4.44 (23:40) 0 0 0 0 0
10-03-2020 -- (--) -- (--) -- 8.89 (14:10) 6.67 (14:10) 0 0 0 0 0
09-03-2020 -- (--) -- (--) -- 10.83 (08:10) 8.61 (12:10) 0 0 0 0 0
08-03-2020 -- (--) -- (--) -- 4.44 (13:00) 2.78 (13:00) 0 0 0 0 0
07-03-2020 -- (--) -- (--) -- 8.06 (03:50) 3.61 (13:20) 0.8 0 0.8 0 0
06-03-2020 -- (--) -- (--) -- 19.72 (10:20) 13.33 (11:30) 0.4 0 0 0 0.4
05-03-2020 -- (--) -- (--) -- -- (--) -- (--) 0 0 0 0 0
04-03-2020 -- (--) -- (--) -- -- (--) -- (--) 0 0 0 0 0
03-03-2020 -- (--) -- (--) -- -- (--) -- (--) 0 0 0 0 0
02-03-2020 -- (--) -- (--) -- 15 (22:00) 8.61 (05:00) 0 0 0 0 0

Gráficas

Temp. máximas Temp. mínimas Temp. medias Precipitaciones Rachas de viento máximas Velocidades máximas media en intervalos de 10 minutos

Datos horarios

Fecha y hora oficial Temperatura (ºC) Velocidad del viento (km/h) Dirección del viento Racha (km/h) Dirección de racha Precipitación (mm) Presión (hPa) Tendencia (hPa) Humedad (%)
2020-03-31 23:00:00 -- 2 Oeste 4 Oeste 0 -- -- 87
2020-03-31 22:00:00 -- 2 Noroeste 5 Noroeste 0 -- -- 86
2020-03-31 21:00:00 -- 2 Noroeste 8 Norte 0 -- -- 84
2020-03-31 20:00:00 -- 3 Norte 17 Noroeste 0 -- -- 83
2020-03-31 19:00:00 -- 8 Noroeste 17 Oeste 0.2 -- -- 81
2020-03-31 18:00:00 -- 4 Norte 23 Sudeste 0.6 -- -- 80
2020-03-31 17:00:00 -- 23 Sudeste 27 Este 0.6 -- -- 81
2020-03-31 16:00:00 -- 23 Sudeste 33 Este 0 -- -- 70
2020-03-31 15:00:00 -- 9 Oeste 21 Oeste 0 -- -- 78
2020-03-31 14:00:00 -- 9 Oeste 24 Noroeste 0.8 -- -- 83
2020-03-31 13:00:00 -- 17 Noroeste 48 Sudeste 0 -- -- 75
2020-03-31 12:00:00 -- 14 Sudeste 30 Este 0 -- -- 68
2020-03-31 11:00:00 -- 23 Este 35 Este 0 -- -- 71
2020-03-31 10:00:00 -- 10 Sudeste 32 Sudeste 0.6 -- -- 74
2020-03-31 09:00:00 -- 12 Este 23 Sudeste 1.4 -- -- 83
2020-03-31 08:00:00 -- 5 Oeste 11 Noroeste 0 -- -- 93
2020-03-31 07:00:00 -- 0 Calma 13 Este 0 -- -- 92
2020-03-31 06:00:00 -- 6 Nordeste 15 Noroeste 10.2 -- -- 91
2020-03-31 05:00:00 -- 5 Oeste 41 Este 4 -- -- 85
2020-03-31 04:00:00 -- 29 Este 39 Este 0.6 -- -- 84
2020-03-31 03:00:00 -- 22 Este 36 Este 0 -- -- 78
2020-03-31 02:00:00 -- 8 Este 21 Sudeste 0 -- -- 74
2020-03-31 01:00:00 -- 18 Sudeste 21 Sudeste 0 -- -- 83
2020-03-31 00:00:00 -- 4 Este 6 Nordeste 0 -- -- 74
2020-03-30 23:00:00 -- 3 Este 6 Este 0 -- -- 74
2020-03-30 22:00:00 -- 0 Calma 8 Oeste 0 -- -- 77
2020-03-30 21:00:00 -- 6 Oeste 11 Oeste 0 -- -- 73
2020-03-30 20:00:00 -- 4 Sudoeste 8 Sudoeste 0 -- -- 72
2020-03-30 19:00:00 -- 3 Sudeste 9 Oeste 0 -- -- 64
2020-03-30 18:00:00 -- 6 Oeste 16 Oeste 0 -- -- 63
2020-03-30 17:00:00 -- 7 Oeste 15 Sudoeste 0 -- -- 65
2020-03-30 16:00:00 -- 6 Sudoeste 18 Sudoeste 0 -- -- 65
2020-03-30 15:00:00 -- 9 Sudoeste 16 Sur 0 -- -- 67
2020-03-30 14:00:00 -- 7 Sudoeste 14 Sudoeste 0 -- -- 62
2020-03-30 13:00:00 -- 9 Sudoeste 16 Sudoeste 0 -- -- 60
2020-03-30 12:00:00 -- 6 Sudoeste 15 Sudoeste 0 -- -- 65
2020-03-30 11:00:00 -- 6 Sudoeste 13 Oeste 0 -- -- 64
2020-03-30 10:00:00 -- 0 Calma 4 Norte 0 -- -- 70
2020-03-30 09:00:00 -- 0 Calma 5 Norte 0 -- -- 78
2020-03-30 08:00:00 -- 0 Calma 3 Nordeste 0 -- -- 81
2020-03-30 07:00:00 -- 2 Nordeste 8 Noroeste 0 -- -- 80
2020-03-30 06:00:00 -- 6 Oeste 11 Oeste 0 -- -- 75
2020-03-30 05:00:00 -- 5 Noroeste 10 Noroeste 0 -- -- 77
2020-03-30 04:00:00 -- 0 Calma 8 Nordeste 0 -- -- 83
2020-03-30 03:00:00 -- 2 Nordeste 6 Norte 0 -- -- 83
2020-03-30 02:00:00 -- 0 Calma 5 Noroeste 0 -- -- 80
2020-03-30 01:00:00 -- 3 Nordeste 6 Nordeste 0 -- -- 79
2020-03-30 00:00:00 -- 3 Noroeste 12 Oeste 0 -- -- 75
2020-03-29 23:00:00 -- 3 Nordeste 9 Oeste 0 -- -- 73
2020-03-29 22:00:00 -- 5 Oeste 10 Oeste 0 -- -- 71
2020-03-29 21:00:00 -- 4 Oeste 9 Oeste 0 -- -- 69
2020-03-29 20:00:00 -- 4 Oeste 9 Sudoeste 0 -- -- 65
2020-03-29 19:00:00 -- 4 Sudoeste 10 Sudoeste 0 -- -- 61
2020-03-29 18:00:00 -- 7 Sudoeste 14 Sudoeste 0 -- -- 54
2020-03-29 17:00:00 -- 7 Sudoeste 15 Sudoeste 0 -- -- 56
2020-03-29 16:00:00 -- 10 Sudoeste 17 Sur 0 -- -- 58
2020-03-29 15:00:00 -- 7 Sudoeste 15 Sudoeste 0 -- -- 53
2020-03-29 14:00:00 -- 8 Sudoeste 17 Sudoeste 0 -- -- 53
2020-03-29 13:00:00 -- 6 Sudoeste 12 Sudoeste 0 -- -- 51
2020-03-29 12:00:00 -- 5 Sudoeste 15 Sudoeste 0 -- -- 53
2020-03-29 11:00:00 -- 9 Sudoeste 16 Sudoeste 0 -- -- 57
2020-03-29 10:00:00 -- 4 Sudeste 5 Sudeste 0 -- -- 61
2020-03-29 09:00:00 -- 2 Sur 8 Sudeste 0 -- -- 76
2020-03-29 08:00:00 -- 0 Calma 2 Noroeste 0 -- -- 82
2020-03-29 07:00:00 -- 0 Calma 2 Noroeste 0 -- -- 82
2020-03-29 06:00:00 -- 0 Calma 3 Noroeste 0 -- -- 80
2020-03-29 05:00:00 -- 0 Calma 3 Oeste 0 -- -- 79
2020-03-29 03:00:00 -- 0 Calma 3 Nordeste 0 -- -- 76
2020-03-29 01:00:00 -- 0 Calma 4 Norte 0 -- -- 74
2020-03-29 00:00:00 -- 2 Nordeste 10 Este 0 -- -- 73
2020-03-28 23:00:00 -- 11 Este 18 Sudeste 0 -- -- 73
2020-03-28 22:00:00 -- 9 Sudeste 15 Sudeste 0 -- -- 72
2020-03-28 21:00:00 -- 8 Sudeste 16 Sudeste 0 -- -- 72
2020-03-28 20:00:00 -- 12 Sudeste 19 Sudeste 0 -- -- 73
2020-03-28 19:00:00 -- 15 Sudeste 25 Sudeste 0 -- -- 72
2020-03-28 18:00:00 -- 20 Sudeste 28 Sudeste 0 -- -- 71
2020-03-28 17:00:00 -- 23 Sudeste 30 Sudeste 0 -- -- 70
2020-03-28 16:00:00 -- 23 Sudeste 33 Sudeste 0 -- -- 67
2020-03-28 15:00:00 -- 27 Sudeste 36 Sudeste 0 -- -- 66
2020-03-28 14:00:00 -- 28 Sudeste 35 Sudeste 0 -- -- 66
2020-03-28 13:00:00 -- 26 Sudeste 36 Sudeste 0 -- -- 65
2020-03-28 12:00:00 -- 19 Sudeste 28 Sudeste 0 -- -- 64
2020-03-28 11:00:00 -- 21 Sudeste 26 Sudeste 0 -- -- 70
2020-03-28 10:00:00 -- 8 Sudeste 20 Sudeste 0 -- -- 67
2020-03-28 09:00:00 -- 0 Calma 8 Norte 0 -- -- 80
2020-03-28 08:00:00 -- 5 Norte 10 Nordeste 0 -- -- 84
2020-03-28 07:00:00 -- 4 Norte 8 Nordeste 0 -- -- 85
2020-03-28 06:00:00 -- 0 Calma 9 Norte 0 -- -- 84
2020-03-28 05:00:00 -- 0 Calma 19 Este 0 -- -- 78
2020-03-28 04:00:00 -- 9 Este 19 Este 0 -- -- 75
2020-03-28 03:00:00 -- 12 Este 23 Este 0 -- -- 76
2020-03-28 02:00:00 -- 11 Este 17 Sudeste 0 -- -- 76
2020-03-28 01:00:00 -- 8 Este 25 Sudeste 0 -- -- 77
2020-03-28 00:00:00 -- 21 Sudeste 26 Sudeste 0 -- -- 77
2020-03-27 23:00:00 -- 12 Sudeste 18 Sudeste 0 -- -- 75
2020-03-27 22:00:00 -- 12 Este 17 Este 0 -- -- 75
2020-03-27 21:00:00 -- 5 Este 13 Sudeste 0 -- -- 74
2020-03-27 20:00:00 -- 14 Sudeste 21 Sudeste 0 -- -- 75
2020-03-27 19:00:00 -- 13 Sudeste 24 Sudeste 0 -- -- 74
2020-03-27 18:00:00 -- 19 Sudeste 27 Sudeste 0 -- -- 71
2020-03-27 17:00:00 -- 22 Sudeste 28 Sudeste 0 -- -- 69
2020-03-27 16:00:00 -- 21 Sudeste 29 Sudeste 0 -- -- 68
2020-03-27 15:00:00 -- 24 Sudeste 31 Sudeste 0 -- -- 67
2020-03-27 14:00:00 -- 24 Sudeste 33 Sudeste 0 -- -- 63
2020-03-27 13:00:00 -- 22 Sudeste 32 Este 0 -- -- 60
2020-03-27 12:00:00 -- 19 Este 34 Sudeste 0 -- -- 65
2020-03-27 11:00:00 -- 22 Este 39 Este 0 -- -- 66
2020-03-27 10:00:00 -- 15 Este 26 Este 0 -- -- 66
2020-03-27 09:00:00 -- 17 Este 30 Este 0 -- -- 66
2020-03-27 08:00:00 -- 10 Este 27 Este 0 -- -- 69
2020-03-27 07:00:00 -- 14 Este 32 Este 0 -- -- 70
2020-03-27 06:00:00 -- 14 Este 37 Este 0 -- -- 72
2020-03-27 05:00:00 -- 16 Este 28 Nordeste 0 -- -- 75
2020-03-27 04:00:00 -- 10 Este 27 Este 0 -- -- 74
2020-03-27 03:00:00 -- 7 Nordeste 38 Este 0 -- -- 76
2020-03-27 02:00:00 -- 27 Este 38 Este 0 -- -- 76
2020-03-27 01:00:00 -- 7 Este 24 Sudeste 0 -- -- 67
2020-03-27 00:00:00 -- 10 Oeste 20 Oeste 0 -- -- 76
2020-03-26 23:00:00 -- 16 Oeste 28 Oeste 0 -- -- 68
2020-03-26 22:00:00 -- 13 Oeste 28 Oeste 0 -- -- 76
2020-03-26 21:00:00 -- 16 Oeste 39 Oeste 0 -- -- 74
2020-03-26 20:00:00 -- 22 Oeste 38 Oeste 0 -- -- 71
2020-03-26 19:00:00 -- 19 Oeste 48 Oeste 0 -- -- 71
2020-03-26 18:00:00 -- 23 Oeste 47 Oeste 0 -- -- 72
2020-03-26 17:00:00 -- 27 Oeste 47 Oeste 0 -- -- 68
2020-03-26 16:00:00 -- 26 Oeste 48 Oeste 0 -- -- 68
2020-03-26 15:00:00 -- 23 Oeste 43 Oeste 0 -- -- 61
2020-03-26 14:00:00 -- 22 Oeste 43 Sudoeste 0 -- -- 61
2020-03-26 13:00:00 -- 23 Oeste 44 Oeste 0 -- -- 60
2020-03-26 12:00:00 -- 24 Oeste 44 Oeste 0 -- -- 66
2020-03-26 11:00:00 -- 18 Oeste 39 Oeste 0 -- -- 74
2020-03-26 10:00:00 -- 18 Oeste 33 Oeste 0 -- -- 77
2020-03-26 09:00:00 -- 5 Oeste 10 Oeste 0 -- -- 81
2020-03-26 08:00:00 -- 6 Nordeste 10 Nordeste 0 -- -- 81
2020-03-26 07:00:00 -- 3 Norte 10 Oeste 0 -- -- 82
2020-03-26 06:00:00 -- 7 Noroeste 17 Oeste 0 -- -- 81
2020-03-26 05:00:00 -- 8 Noroeste 15 Oeste 0 -- -- 83
2020-03-26 04:00:00 -- 5 Noroeste 12 Oeste 0 -- -- 86
2020-03-26 03:00:00 -- 0 Calma 4 Norte 0 -- -- 86
2020-03-26 02:00:00 -- 2 Norte 7 Noroeste 0 -- -- 86
2020-03-26 01:00:00 -- 3 Noroeste 5 Norte 0 -- -- 85
2020-03-26 00:00:00 -- 3 Nordeste 5 Nordeste 0 -- -- 83
2020-03-25 23:00:00 -- 3 Nordeste 5 Nordeste 0 -- -- 81
2020-03-25 22:00:00 -- 3 Nordeste 4 Nordeste 0 -- -- 81
2020-03-25 21:00:00 -- 2 Nordeste 4 Nordeste 0 -- -- 79
2020-03-25 20:00:00 -- 2 Noroeste 12 Noroeste 0 -- -- 78
2020-03-25 19:00:00 -- 6 Oeste 9 Oeste 0 -- -- 73
2020-03-25 18:00:00 -- 3 Oeste 13 Sudoeste 0 -- -- 69
2020-03-25 17:00:00 -- 6 Sudoeste 12 Oeste 0 -- -- 65
2020-03-25 16:00:00 -- 0 Calma 6 Nordeste 0 -- -- 67
2020-03-25 15:00:00 -- 4 Norte 14 Nordeste 0 -- -- 76
2020-03-25 14:00:00 -- 8 Nordeste 16 Nordeste 0 -- -- 83
2020-03-25 13:00:00 -- 4 Norte 9 Noroeste 0 -- -- 88
2020-03-25 12:00:00 -- 5 Norte 12 Oeste 0 -- -- 90
2020-03-25 11:00:00 -- 6 Noroeste 20 Noroeste 0.8 -- -- 91
2020-03-25 10:00:00 -- 13 Oeste 21 Oeste 1.6 -- -- 90
2020-03-25 09:00:00 -- 9 Sudoeste 21 Oeste 0.8 -- -- 89
2020-03-25 08:00:00 -- 3 Noroeste 9 Oeste 0 -- -- 90
2020-03-25 07:00:00 -- 5 Noroeste 8 Noroeste 0 -- -- 90
2020-03-25 06:00:00 -- 2 Sudeste 8 Sudeste 0 -- -- 89
2020-03-25 05:00:00 -- 0 Calma 14 Noroeste 0.4 -- -- 90
2020-03-25 04:00:00 -- 5 Norte 16 Oeste 1.4 -- -- 89
2020-03-25 03:00:00 -- 9 Oeste 17 Oeste 0.2 -- -- 81
2020-03-25 02:00:00 -- 7 Sur 16 Sudoeste 0 -- -- 74
2020-03-25 01:00:00 -- 5 Sudoeste 12 Oeste 0 -- -- 82
2020-03-25 00:00:00 -- 0 Calma 5 Sur 0 -- -- 80
2020-03-24 23:00:00 -- 2 Este 11 Oeste 0 -- -- 79
2020-03-24 22:00:00 -- 5 Oeste 10 Sudoeste 0 -- -- 77
2020-03-24 21:00:00 -- 6 Oeste 16 Oeste 0 -- -- 75
2020-03-24 20:00:00 -- 9 Oeste 23 Oeste 0 -- -- 72
2020-03-24 19:00:00 -- 13 Oeste 31 Oeste 0 -- -- 67
2020-03-24 18:00:00 -- 14 Oeste 23 Oeste 0 -- -- 57
2020-03-24 17:00:00 -- 13 Oeste 26 Oeste 0 -- -- 55
2020-03-24 16:00:00 -- 8 Oeste 19 Sudoeste 0 -- -- 48
2020-03-24 15:00:00 -- 10 Oeste 27 Oeste 0 -- -- 51
2020-03-24 14:00:00 -- 16 Oeste 23 Oeste 0 -- -- 53
2020-03-24 13:00:00 -- 9 Sudoeste 20 Sudoeste 0 -- -- 68
2020-03-24 12:00:00 -- 5 Oeste 11 Oeste 0 -- -- 58
2020-03-24 11:00:00 -- 3 Sudeste 6 Sudeste 0 -- -- 67
2020-03-24 10:00:00 -- 5 Este 10 Sudeste 0 -- -- 71
2020-03-24 09:00:00 -- 3 Sur 5 Norte 0 -- -- 70
2020-03-24 08:00:00 -- 3 Nordeste 6 Sur 0 -- -- 67
2020-03-24 07:00:00 -- 4 Este 10 Norte 0 -- -- 66
2020-03-24 06:00:00 -- 6 Norte 13 Noroeste 0 -- -- 64
2020-03-24 05:00:00 -- 2 Sudeste 22 Norte 0 -- -- 69
2020-03-24 04:00:00 -- 7 Norte 23 Noroeste 0 -- -- 67
2020-03-24 03:00:00 -- 4 Sudeste 13 Este 0 -- -- 75
2020-03-24 02:00:00 -- 3 Nordeste 6 Nordeste 0 -- -- 82
2020-03-24 01:00:00 -- 4 Este 19 Noroeste 0 -- -- 79
2020-03-24 00:00:00 -- 14 Oeste 22 Oeste 0 -- -- 77
2020-03-23 23:00:00 -- 2 Sudeste 7 Noroeste 0 -- -- 84
2020-03-23 22:00:00 -- 3 Este 8 Este 0 -- -- 81
2020-03-23 21:00:00 -- 2 Noroeste 10 Noroeste 0 -- -- 78
2020-03-23 20:00:00 -- 4 Nordeste 18 Nordeste 0 -- -- 73
2020-03-23 19:00:00 -- 6 Norte 19 Noroeste 0 -- -- 84
2020-03-23 18:00:00 -- 10 Noroeste 17 Oeste 1.2 -- -- 87
2020-03-23 17:00:00 -- 7 Este 39 Este 1.2 -- -- 84
2020-03-23 16:00:00 -- 21 Este 36 Este 0.4 -- -- 81
2020-03-23 15:00:00 -- 21 Este 44 Sudeste 0 -- -- 71
2020-03-23 14:00:00 -- 23 Sudeste 38 Sudeste 0 -- -- 62
2020-03-23 13:00:00 -- 22 Sudeste 33 Sudeste 0 -- -- 70
2020-03-23 12:00:00 -- 24 Sudeste 30 Sudeste 0 -- -- 66
2020-03-23 11:00:00 -- 21 Sudeste 28 Sudeste 0 -- -- 64
2020-03-23 10:00:00 -- 13 Sudeste 17 Sudeste 0 -- -- 70
2020-03-23 09:00:00 -- 3 Nordeste 9 Norte 0 -- -- 66
2020-03-23 08:00:00 -- 0 Calma 5 Norte 0 -- -- 86
2020-03-23 07:00:00 -- 3 Noroeste 10 Nordeste 0 -- -- 82
2020-03-23 06:00:00 -- 5 Nordeste 9 Este 0 -- -- 82
2020-03-23 05:00:00 -- 4 Este 9 Nordeste 0 -- -- 84
2020-03-23 04:00:00 -- 6 Nordeste 12 Nordeste 0 -- -- 85
2020-03-23 03:00:00 -- 0 Calma 8 Nordeste 0 -- -- 86
2020-03-23 02:00:00 -- 5 Nordeste 9 Nordeste 0 -- -- 85
2020-03-23 01:00:00 -- 4 Nordeste 8 Nordeste 0 -- -- 86
2020-03-23 00:00:00 -- 3 Nordeste 8 Nordeste 0 -- -- 87
2020-03-22 23:00:00 -- 3 Nordeste 7 Nordeste 0 -- -- 86
2020-03-22 22:00:00 -- 4 Nordeste 6 Norte 0 -- -- 86
2020-03-22 21:00:00 -- 3 Nordeste 6 Nordeste 0 -- -- 84
2020-03-22 20:00:00 -- 3 Sur 6 Sudeste 0 -- -- 81
2020-03-22 19:00:00 -- 4 Sudeste 8 Sudeste 0 -- -- 78
2020-03-22 18:00:00 -- 5 Sur 11 Sudeste 0 -- -- 74
2020-03-22 17:00:00 -- 7 Sur 13 Sur 0 -- -- 70
2020-03-22 16:00:00 -- 7 Sur 18 Sur 0 -- -- 70
2020-03-22 15:00:00 -- 13 Sur 21 Sur 0 -- -- 72
2020-03-22 14:00:00 -- 10 Sudeste 17 Sudeste 0 -- -- 65
2020-03-22 13:00:00 -- 6 Sur 13 Sudeste 0 -- -- 66
2020-03-22 12:00:00 -- 4 Sudeste 8 Sudeste 0 -- -- 64
2020-03-22 11:00:00 -- 3 Este 7 Este 0 -- -- 80
2020-03-22 10:00:00 -- 3 Norte 6 Norte 0 -- -- 86
2020-03-22 09:00:00 -- 3 Nordeste 8 Nordeste 0 -- -- 85
2020-03-22 08:00:00 -- 5 Este 10 Este 0 -- -- 90
2020-03-22 07:00:00 -- 0 Calma 9 Este 1 -- -- 92
2020-03-22 06:00:00 -- 4 Este 8 Este 3.2 -- -- 91
2020-03-22 05:00:00 -- 0 Calma 13 Nordeste 2.6 -- -- 91
2020-03-22 04:00:00 -- 3 Nordeste 5 Nordeste 3.2 -- -- 90
2020-03-22 03:00:00 -- 3 Nordeste 10 Nordeste 0 -- -- 87
2020-03-22 02:00:00 -- 0 Calma 11 Oeste 0 -- -- 89
2020-03-22 01:00:00 -- 0 Calma 12 Este 1.4 -- -- 91
2020-03-22 00:00:00 -- 5 Oeste 12 Oeste 0.6 -- -- 89
2020-03-21 23:00:00 -- 3 Noroeste 9 Noroeste 2 -- -- 89
2020-03-21 22:00:00 -- 3 Noroeste 10 Nordeste 0.2 -- -- 88
2020-03-21 21:00:00 -- 3 Nordeste 8 Noroeste 1.2 -- -- 88
2020-03-21 20:00:00 -- 3 Noroeste 22 Oeste 0.6 -- -- 87
2020-03-21 19:00:00 -- 13 Oeste 44 Oeste 1 -- -- 85
2020-03-21 18:00:00 -- 17 Oeste 30 Oeste 0 -- -- 65
2020-03-21 17:00:00 -- 14 Oeste 32 Oeste 0 -- -- 56
2020-03-21 16:00:00 -- 15 Oeste 41 Oeste 0 -- -- 52
2020-03-21 15:00:00 -- 22 Oeste 43 Oeste 0 -- -- 58
2020-03-21 14:00:00 -- 20 Oeste 39 Oeste 0 -- -- 57
2020-03-21 13:00:00 -- 21 Oeste 35 Oeste 0 -- -- 61
2020-03-21 12:00:00 -- 11 Oeste 23 Sudoeste 0 -- -- 66
2020-03-21 11:00:00 -- 6 Sudoeste 23 Sudoeste 0 -- -- 71
2020-03-21 10:00:00 -- 8 Oeste 19 Oeste 0 -- -- 75
2020-03-21 09:00:00 -- 9 Oeste 17 Noroeste 0 -- -- 85
2020-03-21 08:00:00 -- 3 Este 16 Oeste 0.6 -- -- 87
2020-03-21 07:00:00 -- 6 Nordeste 17 Noroeste 5 -- -- 91
2020-03-21 06:00:00 -- 12 Oeste 28 Noroeste 10 -- -- 89
2020-03-21 05:00:00 -- 15 Sudeste 34 Sudeste 2 -- -- 86
2020-03-21 04:00:00 -- 16 Sudeste 27 Sudeste 0 -- -- 74
2020-03-21 03:00:00 -- 15 Sudeste 24 Este 0 -- -- 71
2020-03-21 02:00:00 -- 13 Sudeste 27 Este 0 -- -- 71
2020-03-21 01:00:00 -- 18 Sudeste 24 Sudeste 0 -- -- 77
2020-03-21 00:00:00 -- 0 Calma 24 Este 0 -- -- 73
2020-03-20 23:00:00 -- 13 Este 36 Este 0 -- -- 76
2020-03-20 22:00:00 -- 30 Este 42 Sudeste 0 -- -- 77
2020-03-20 21:00:00 -- 26 Sudeste 38 Sudeste 0 -- -- 81
2020-03-20 20:00:00 -- 21 Sudeste 30 Sudeste 0 -- -- 80
2020-03-20 19:00:00 -- 21 Sudeste 27 Sudeste 0 -- -- 80
2020-03-20 18:00:00 -- 18 Sudeste 24 Sudeste 0 -- -- 78
2020-03-20 17:00:00 -- 10 Sudeste 19 Sudeste 0 -- -- 73
2020-03-20 16:00:00 -- 13 Sudeste 17 Sudeste 0 -- -- 72
2020-03-20 15:00:00 -- 13 Sudeste 25 Sudeste 0 -- -- 68
2020-03-20 14:00:00 -- 6 Sudoeste 17 Sudoeste 0 -- -- 56
2020-03-20 13:00:00 -- 9 Sur 14 Sur 0 -- -- 56
2020-03-20 12:00:00 -- 6 Sudeste 12 Sudoeste 0 -- -- 68
2020-03-20 11:00:00 -- 9 Sudoeste 17 Oeste 0 -- -- 64
2020-03-20 10:00:00 -- 10 Oeste 20 Oeste 0 -- -- 68
2020-03-20 09:00:00 -- 5 Oeste 9 Oeste 0 -- -- 77
2020-03-20 08:00:00 -- 3 Norte 10 Oeste 0 -- -- 83
2020-03-20 07:00:00 -- 5 Oeste 9 Noroeste 0 -- -- 82
2020-03-20 06:00:00 -- 4 Nordeste 9 Nordeste 0 -- -- 81
2020-03-20 05:00:00 -- 4 Nordeste 7 Nordeste 0 -- -- 84
2020-03-20 04:00:00 -- 3 Oeste 5 Sudoeste 0 -- -- 85
2020-03-20 03:00:00 -- 2 Sur 6 Sudoeste 0 -- -- 84
2020-03-20 02:00:00 -- 3 Nordeste 7 Nordeste 0 -- -- 84
2020-03-20 01:00:00 -- 2 Norte 8 Nordeste 0 -- -- 83
2020-03-20 00:00:00 -- 0 Calma 4 Norte 0 -- -- 82
2020-03-19 23:00:00 -- 2 Norte 7 Norte 0 -- -- 79
2020-03-19 22:00:00 -- 4 Noroeste 8 Este 0 -- -- 77
2020-03-19 21:00:00 -- 6 Este 17 Noroeste 0 -- -- 76
2020-03-19 20:00:00 -- 10 Noroeste 19 Oeste 0 -- -- 72
2020-03-19 19:00:00 -- 11 Noroeste 15 Oeste 0 -- -- 68
2020-03-19 18:00:00 -- 9 Noroeste 15 Oeste 0 -- -- 63
2020-03-19 17:00:00 -- 7 Sudoeste 14 Sudoeste 0 -- -- 63
2020-03-19 16:00:00 -- 5 Sudoeste 13 Sudoeste 0 -- -- 58
2020-03-19 15:00:00 -- 6 Sudoeste 12 Sudoeste 0 -- -- 60
2020-03-19 14:00:00 -- 8 Sur 15 Sur 0 -- -- 61
2020-03-19 13:00:00 -- 10 Sur 24 Oeste 0 -- -- 62
2020-03-19 12:00:00 -- 12 Oeste 27 Oeste 0 -- -- 56
2020-03-19 11:00:00 -- 7 Oeste 13 Oeste 0 -- -- 63
2020-03-19 10:00:00 -- 3 Sudeste 5 Sur 0 -- -- 72
2020-03-19 09:00:00 -- 3 Nordeste 7 Norte 0 -- -- 76
2020-03-19 08:00:00 -- 4 Nordeste 14 Oeste 0 -- -- 78
2020-03-19 07:00:00 -- 5 Noroeste 10 Oeste 0 -- -- 74
2020-03-19 06:00:00 -- 3 Noroeste 5 Noroeste 0 -- -- 83
2020-03-19 05:00:00 -- 2 Norte 5 Noroeste 0 -- -- 82
2020-03-19 04:00:00 -- 2 Norte 6 Sudeste 0 -- -- 81
2020-03-19 03:00:00 -- 0 Calma 6 Sudeste 0 -- -- 82
2020-03-19 02:00:00 -- 2 Este 6 Norte 0 -- -- 81
2020-03-19 01:00:00 -- 0 Calma 9 Nordeste 0 -- -- 76
2020-03-19 00:00:00 -- 6 Nordeste 12 Este 0 -- -- 75
2020-03-18 23:00:00 -- 0 Calma 11 Este 0 -- -- 74
2020-03-18 22:00:00 -- 3 Nordeste 25 Este 0 -- -- 71
2020-03-18 21:00:00 -- 17 Este 32 Este 0 -- -- 70
2020-03-18 20:00:00 -- 23 Este 35 Este 0 -- -- 70
2020-03-18 19:00:00 -- 23 Este 43 Este 0 -- -- 66
2020-03-18 18:00:00 -- 31 Este 58 Este 0 -- -- 64
2020-03-18 17:00:00 -- 32 Este 58 Este 0 -- -- 60
2020-03-18 16:00:00 -- 43 Sudeste 62 Sudeste 0 -- -- 60
2020-03-18 15:00:00 -- 36 Este 59 Este 0 -- -- 59
2020-03-18 14:00:00 -- 33 Este 58 Este 0 -- -- 56
2020-03-18 13:00:00 -- 34 Este 63 Sudeste 0 -- -- 60
2020-03-18 12:00:00 -- 40 Este 62 Sudeste 0 -- -- 62
2020-03-18 11:00:00 -- 37 Este 59 Sudeste 0 -- -- 62
2020-03-18 10:00:00 -- 32 Este 57 Este 0 -- -- 61
2020-03-18 09:00:00 -- 32 Sudeste 46 Este 0 -- -- 60
2020-03-18 08:00:00 -- 31 Este 46 Este 0 -- -- 62
2020-03-18 07:00:00 -- 28 Este 43 Este 0 -- -- 65
2020-03-18 06:00:00 -- 28 Este 44 Sudeste 0 -- -- 63
2020-03-18 05:00:00 -- 29 Sudeste 39 Este 0 -- -- 61
2020-03-18 04:00:00 -- 24 Este 35 Este 0 -- -- 61
2020-03-18 03:00:00 -- 29 Este 53 Este 0 -- -- 65
2020-03-18 02:00:00 -- 38 Este 64 Sudeste 0 -- -- 67
2020-03-18 01:00:00 -- 44 Este 58 Este 0 -- -- 69
2020-03-18 00:00:00 -- 40 Este 58 Este 0 -- -- 70
2020-03-17 23:00:00 -- 19 Este 30 Este 0 -- -- 68
2020-03-17 22:00:00 -- 8 Este 18 Nordeste 0 -- -- 74
2020-03-17 21:00:00 -- 3 Nordeste 14 Noroeste 0 -- -- 75
2020-03-17 20:00:00 -- 6 Noroeste 17 Oeste 0 -- -- 72
2020-03-17 19:00:00 -- 4 Oeste 12 Norte 0 -- -- 67
2020-03-17 18:00:00 -- 9 Este 32 Este 0 -- -- 73
2020-03-17 17:00:00 -- 19 Este 39 Este 0 -- -- 74
2020-03-17 16:00:00 -- 27 Sudeste 44 Este 0 -- -- 77
2020-03-17 15:00:00 -- 32 Sudeste 42 Sudeste 0 -- -- 56
2020-03-17 14:00:00 -- 29 Este 51 Sudeste 0 -- -- 48
2020-03-17 13:00:00 -- 24 Sudeste 41 Sudeste 0 -- -- 47
2020-03-17 12:00:00 -- 31 Este 50 Sudeste 0 -- -- 47
2020-03-17 11:00:00 -- 29 Sudeste 52 Sudeste 0 -- -- 58
2020-03-17 10:00:00 -- 29 Este 41 Sudeste 0 -- -- 57
2020-03-17 09:00:00 -- 19 Este 29 Este 0 -- -- 57
2020-03-17 08:00:00 -- 14 Este 24 Sudeste 0 -- -- 57
2020-03-17 07:00:00 -- 17 Este 24 Este 0 -- -- 61
2020-03-17 06:00:00 -- 6 Nordeste 9 Nordeste 0 -- -- 60
2020-03-17 05:00:00 -- 5 Norte 9 Nordeste 0 -- -- 53
2020-03-17 04:00:00 -- 6 Nordeste 10 Nordeste 0 -- -- 54
2020-03-17 03:00:00 -- 3 Nordeste 6 Nordeste 0 -- -- 56
2020-03-17 02:00:00 -- 3 Norte 11 Nordeste 0 -- -- 51
2020-03-17 01:00:00 -- 2 Oeste 5 Este 0 -- -- 49
2020-03-17 00:00:00 -- 2 Norte 6 Nordeste 0 -- -- 49
2020-03-16 23:00:00 -- 3 Este 13 Noroeste 0 -- -- 49
2020-03-16 22:00:00 -- 9 Noroeste 18 Noroeste 0 -- -- 41
2020-03-16 21:00:00 -- 9 Noroeste 22 Noroeste 0 -- -- 38
2020-03-16 20:00:00 -- 11 Noroeste 31 Noroeste 0 -- -- 36
2020-03-16 19:00:00 -- 17 Noroeste 28 Noroeste 0 -- -- 33
2020-03-16 18:00:00 -- 14 Noroeste 38 Oeste 0 -- -- 29
2020-03-16 17:00:00 -- 22 Noroeste 40 Noroeste 0 -- -- 24
2020-03-16 16:00:00 -- 18 Noroeste 54 Oeste 0 -- -- 22
2020-03-16 15:00:00 -- 30 Oeste 54 Oeste 0 -- -- 32
2020-03-16 14:00:00 -- 27 Oeste 49 Oeste 0 -- -- 29
2020-03-16 13:00:00 -- 23 Oeste 40 Oeste 0 -- -- 39
2020-03-16 12:00:00 -- 8 Noroeste 23 Norte 0 -- -- 31
2020-03-16 11:00:00 -- 15 Norte 35 Norte 0 -- -- 37
2020-03-16 10:00:00 -- 14 Norte 32 Norte 0 -- -- 51
2020-03-16 09:00:00 -- 5 Norte 15 Norte 0 -- -- 81
2020-03-16 08:00:00 -- 3 Noroeste 5 Noroeste 0 -- -- 85
2020-03-16 07:00:00 -- 2 Norte 6 Nordeste 0 -- -- 85
2020-03-16 06:00:00 -- 0 Calma 8 Sudoeste 0 -- -- 84
2020-03-16 05:00:00 -- 0 Calma 6 Norte 0 -- -- 83
2020-03-16 04:00:00 -- 4 Noroeste 9 Noroeste 0 -- -- 83
2020-03-16 03:00:00 -- 2 Oeste 5 Oeste 0 -- -- 84
2020-03-16 02:00:00 -- 2 Norte 5 Nordeste 0 -- -- 86
2020-03-16 01:00:00 -- 0 Calma 4 Oeste 0 -- -- 86
2020-03-16 00:00:00 -- 0 Calma 5 Norte 0 -- -- 85
2020-03-15 23:00:00 -- 2 Sur 9 Oeste 0 -- -- 85
2020-03-15 22:00:00 -- 2 Noroeste 6 Oeste 0 -- -- 84
2020-03-15 21:00:00 -- 2 Oeste 12 Oeste 0 -- -- 85
2020-03-15 20:00:00 -- 5 Oeste 15 Oeste 0 -- -- 84
2020-03-15 19:00:00 -- 8 Oeste 21 Oeste 0.2 -- -- 83
2020-03-15 18:00:00 -- 5 Noroeste 8 Oeste 0 -- -- 82
2020-03-15 17:00:00 -- 5 Sudeste 11 Sudeste 0 -- -- 80
2020-03-15 16:00:00 -- 9 Sudeste 14 Sur 0.4 -- -- 82
2020-03-15 15:00:00 -- 3 Este 13 Sudeste 0.2 -- -- 77
2020-03-15 14:00:00 -- 10 Sudeste 21 Sudeste 0 -- -- 83
2020-03-15 13:00:00 -- 15 Sudeste 18 Sudeste 0 -- -- 81
2020-03-15 12:00:00 -- 5 Sudeste 14 Sudeste 0 -- -- 75
2020-03-15 11:00:00 -- 12 Sudeste 16 Sudeste 0 -- -- 78
2020-03-15 10:00:00 -- 9 Sudeste 13 Sudeste 0 -- -- 77
2020-03-15 09:00:00 -- 6 Este 9 Sudeste 0 -- -- 81
2020-03-15 08:00:00 -- 3 Norte 5 Norte 0 -- -- 84
2020-03-15 07:00:00 -- 4 Nordeste 13 Sudeste 0 -- -- 82
2020-03-15 06:00:00 -- 4 Este 9 Este 0 -- -- 83
2020-03-15 05:00:00 -- 2 Nordeste 13 Sudeste 0 -- -- 82
2020-03-15 04:00:00 -- 5 Este 13 Sudeste 0 -- -- 82
2020-03-15 03:00:00 -- 3 Sur 6 Sur 0 -- -- 81
2020-03-15 02:00:00 -- 0 Calma 5 Oeste 0 -- -- 83
2020-03-15 01:00:00 -- 0 Calma 5 Norte 0 -- -- 83
2020-03-15 00:00:00 -- 3 Norte 6 Nordeste 0 -- -- 84
2020-03-14 23:00:00 -- 3 Nordeste 6 Oeste 0 -- -- 84
2020-03-14 22:00:00 -- 4 Noroeste 6 Oeste 0 -- -- 84
2020-03-14 21:00:00 -- 0 Calma 4 Sudeste 0 -- -- 83
2020-03-14 20:00:00 -- 0 Calma 6 Sur 0 -- -- 81
2020-03-14 19:00:00 -- 5 Sur 9 Sur 0 -- -- 79
2020-03-14 18:00:00 -- 6 Sur 23 Este 0 -- -- 74
2020-03-14 17:00:00 -- 7 Sudeste 14 Sur 0 -- -- 69
2020-03-14 16:00:00 -- 9 Sur 13 Sur 0 -- -- 67
2020-03-14 15:00:00 -- 8 Sur 15 Sudeste 0 -- -- 70
2020-03-14 14:00:00 -- 10 Sur 18 Sudeste 0 -- -- 66
2020-03-14 13:00:00 -- 12 Sudeste 18 Sudeste 0 -- -- 69
2020-03-14 12:00:00 -- 8 Sur 12 Sur 0 -- -- 58
2020-03-14 11:00:00 -- 5 Sur 8 Sur 0 -- -- 57
2020-03-14 10:00:00 -- 3 Sudeste 5 Este 0 -- -- 74
2020-03-14 09:00:00 -- 4 Nordeste 6 Nordeste 0 -- -- 75
2020-03-14 08:00:00 -- 2 Nordeste 7 Nordeste 0 -- -- 84
2020-03-14 07:00:00 -- 4 Nordeste 7 Nordeste 0 -- -- 84
2020-03-14 06:00:00 -- 0 Calma 3 Este 0 -- -- 85
2020-03-14 05:00:00 -- 0 Calma 9 Noroeste 0 -- -- 83
2020-03-14 04:00:00 -- 5 Noroeste 8 Oeste 0 -- -- 85
2020-03-14 03:00:00 -- 2 Noroeste 4 Noroeste 0 -- -- 87
2020-03-14 02:00:00 -- 2 Norte 6 Nordeste 0 -- -- 87
2020-03-14 01:00:00 -- 2 Sur 3 Norte 0 -- -- 87
2020-03-14 00:00:00 -- 0 Calma 7 Este 0 -- -- 86
2020-03-13 23:00:00 -- 5 Este 12 Este 0 -- -- 87
2020-03-13 22:00:00 -- 3 Nordeste 15 Sudeste 0 -- -- 87
2020-03-13 21:00:00 -- 2 Nordeste 7 Sudeste 0 -- -- 85
2020-03-13 20:00:00 -- 6 Sudeste 25 Sudeste 0 -- -- 85
2020-03-13 19:00:00 -- 21 Sudeste 27 Sudeste 0 -- -- 79
2020-03-13 18:00:00 -- 23 Sudeste 33 Sudeste 0 -- -- 76
2020-03-13 17:00:00 -- 26 Sudeste 33 Sudeste 0 -- -- 61
2020-03-13 16:00:00 -- 24 Sudeste 35 Sudeste 0 -- -- 61
2020-03-13 15:00:00 -- 25 Sudeste 33 Sudeste 0 -- -- 82
2020-03-13 14:00:00 -- 23 Sudeste 29 Sudeste 0 -- -- 78
2020-03-13 13:00:00 -- 10 Sudeste 24 Sudeste 0 -- -- 69
2020-03-13 12:00:00 -- 18 Sudeste 27 Sudeste 0 -- -- 84
2020-03-13 11:00:00 -- 8 Sur 14 Sur 0 -- -- 71
2020-03-13 10:00:00 -- 2 Sudeste 6 Sur 0 -- -- 70
2020-03-13 09:00:00 -- 0 Calma 4 Noroeste 0 -- -- 69
2020-03-13 08:00:00 -- 0 Calma 4 Norte 0 -- -- 75
2020-03-13 07:00:00 -- 0 Calma 6 Norte 0 -- -- 77
2020-03-13 06:00:00 -- 0 Calma 3 Norte 0 -- -- 75
2020-03-13 05:00:00 -- 0 Calma 4 Norte 0 -- -- 74
2020-03-13 04:00:00 -- 0 Calma 6 Noroeste 0 -- -- 73
2020-03-13 03:00:00 -- 0 Calma 6 Norte 0 -- -- 71
2020-03-13 02:00:00 -- 0 Calma 5 Nordeste 0 -- -- 69
2020-03-13 01:00:00 -- 3 Nordeste 4 Nordeste 0 -- -- 71
2020-03-13 00:00:00 -- 0 Calma 6 Oeste 0 -- -- 72
2020-03-12 23:00:00 -- 0 Calma 4 Sudoeste 0 -- -- 71
2020-03-12 22:00:00 -- 2 Este 4 Sudeste 0 -- -- 71
2020-03-12 21:00:00 -- 0 Calma 5 Noroeste 0 -- -- 66
2020-03-12 20:00:00 -- 2 Oeste 6 Oeste 0 -- -- 59
2020-03-12 19:00:00 -- 3 Oeste 9 Oeste 0 -- -- 52
2020-03-12 18:00:00 -- 5 Sudoeste 11 Sudoeste 0 -- -- 56
2020-03-12 17:00:00 -- 5 Sudoeste 13 Sudoeste 0 -- -- 52
2020-03-12 16:00:00 -- 6 Sudoeste 15 Sudoeste 0 -- -- 54
2020-03-12 15:00:00 -- 9 Sudoeste 17 Sudoeste 0 -- -- 57
2020-03-12 14:00:00 -- 9 Sudoeste 17 Sudoeste 0 -- -- 51
2020-03-12 13:00:00 -- 5 Sur 10 Sudoeste 0 -- -- 58
2020-03-12 12:00:00 -- 6 Sudeste 14 Sudoeste 0 -- -- 63
2020-03-12 11:00:00 -- 10 Sudoeste 17 Sudoeste 0 -- -- 49
2020-03-12 10:00:00 -- 3 Sudoeste 7 Sur 0 -- -- 31
2020-03-12 09:00:00 -- 3 Noroeste 10 Nordeste 0 -- -- 38
2020-03-12 08:00:00 -- 0 Calma 9 Nordeste 0 -- -- 64
2020-03-12 07:00:00 -- 3 Norte 6 Norte 0 -- -- 66
2020-03-12 06:00:00 -- 0 Calma 6 Norte 0 -- -- 72
2020-03-12 05:00:00 -- 2 Noroeste 8 Norte 0 -- -- 70
2020-03-12 04:00:00 -- 3 Norte 6 Norte 0 -- -- 69
2020-03-12 03:00:00 -- 0 Calma 5 Noroeste 0 -- -- 72
2020-03-12 02:00:00 -- 2 Nordeste 5 Norte 0 -- -- 73
2020-03-12 01:00:00 -- 2 Este 13 Sudeste 0 -- -- 74
2020-03-12 00:00:00 -- 9 Sur 28 Sur 0 -- -- 68
2020-03-11 23:00:00 -- 6 Sudeste 14 Sudeste 0 -- -- 72
2020-03-11 22:00:00 -- 0 Calma 4 Norte 0 -- -- 73
2020-03-11 21:00:00 -- 0 Calma 9 Sudeste 0 -- -- 73
2020-03-11 20:00:00 -- 2 Norte 10 Sudeste 0 -- -- 66
2020-03-11 19:00:00 -- 3 Sudeste 11 Sudeste 0 -- -- 70
2020-03-11 18:00:00 -- 10 Sudeste 14 Sudeste 0 -- -- 66
2020-03-11 17:00:00 -- 3 Sudeste 13 Sudeste 0 -- -- 50
2020-03-11 16:00:00 -- 6 Sudeste 9 Sudeste 0 -- -- 56
2020-03-11 15:00:00 -- 6 Sur 10 Sur 0 -- -- 54
2020-03-11 14:00:00 -- 6 Sur 11 Sur 0 -- -- 47
2020-03-11 13:00:00 -- 4 Sur 18 Sudeste 0 -- -- 50
2020-03-11 12:00:00 -- 13 Sudeste 19 Sudeste 0 -- -- 64
2020-03-11 11:00:00 -- 14 Sudeste 18 Sudeste 0 -- -- 62
2020-03-11 10:00:00 -- 4 Sur 13 Sudeste 0 -- -- 55
2020-03-11 09:00:00 -- 0 Calma 4 Sudeste 0 -- -- 54
2020-03-11 08:00:00 -- 0 Calma 7 Noroeste 0 -- -- 70
2020-03-11 07:00:00 -- 2 Sudoeste 4 Sudoeste 0 -- -- 72
2020-03-11 06:00:00 -- 2 Nordeste 7 Noroeste 0 -- -- 73
2020-03-11 05:00:00 -- 3 Este 4 Noroeste 0 -- -- 73
2020-03-11 04:00:00 -- 0 Calma 6 Norte 0 -- -- 71
2020-03-11 03:00:00 -- 5 Nordeste 8 Nordeste 0 -- -- 68
2020-03-11 02:00:00 -- 2 Norte 5 Oeste 0 -- -- 68
2020-03-11 01:00:00 -- 4 Este 9 Nordeste 0 -- -- 67
2020-03-11 00:00:00 -- 0 Calma 4 Nordeste 0 -- -- 70
2020-03-10 23:00:00 -- 2 Este 4 Este 0 -- -- 70
2020-03-10 22:00:00 -- 2 Este 5 Nordeste 0 -- -- 68
2020-03-10 21:00:00 -- 2 Norte 7 Oeste 0 -- -- 71
2020-03-10 20:00:00 -- 4 Oeste 17 Sudeste 0 -- -- 69
2020-03-10 19:00:00 -- 12 Sudeste 20 Sudeste 0 -- -- 68
2020-03-10 18:00:00 -- 15 Sudeste 23 Sudeste 0 -- -- 69
2020-03-10 17:00:00 -- 17 Sudeste 27 Sudeste 0 -- -- 63
2020-03-10 16:00:00 -- 21 Sudeste 29 Sudeste 0 -- -- 61
2020-03-10 15:00:00 -- 24 Sudeste 32 Sudeste 0 -- -- 58
2020-03-10 14:00:00 -- 23 Sudeste 29 Sudeste 0 -- -- 68
2020-03-10 13:00:00 -- 21 Sudeste 27 Sudeste 0 -- -- 50
2020-03-10 12:00:00 -- 21 Sudeste 28 Sudeste 0 -- -- 45
2020-03-10 11:00:00 -- 19 Sudeste 27 Este 0 -- -- 43
2020-03-10 10:00:00 -- 3 Este 9 Sudeste 0 -- -- 47
2020-03-10 09:00:00 -- 2 Sudeste 6 Sudeste 0 -- -- 49
2020-03-10 08:00:00 -- 2 Este 8 Nordeste 0 -- -- 66
2020-03-10 07:00:00 -- 2 Este 7 Noroeste 0 -- -- 70
2020-03-10 06:00:00 -- 3 Noroeste 11 Sudeste 0 -- -- 69
2020-03-10 05:00:00 -- 3 Norte 7 Norte 0 -- -- 73
2020-03-10 04:00:00 -- 2 Nordeste 10 Noroeste 0 -- -- 70
2020-03-10 03:00:00 -- 5 Norte 20 Sudeste 0 -- -- 66
2020-03-10 02:00:00 -- 5 Este 23 Sudeste 0 -- -- 60
2020-03-10 01:00:00 -- 6 Este 12 Sudeste 0 -- -- 72
2020-03-10 00:00:00 -- 5 Sudeste 8 Sur 0 -- -- 82
2020-03-09 23:00:00 -- 3 Este 6 Noroeste 0 -- -- 72
2020-03-09 22:00:00 -- 3 Norte 10 Sudeste 0 -- -- 69
2020-03-09 21:00:00 -- 4 Nordeste 8 Este 0 -- -- 68
2020-03-09 20:00:00 -- 0 Calma 8 Este 0 -- -- 62
2020-03-09 19:00:00 -- 2 Este 10 Sudoeste 0 -- -- 66
2020-03-09 18:00:00 -- 8 Sudoeste 14 Sudoeste 0 -- -- 54
2020-03-09 17:00:00 -- 7 Sudoeste 14 Sudoeste 0 -- -- 64
2020-03-09 16:00:00 -- 5 Sudoeste 16 Sudoeste 0 -- -- 58
2020-03-09 15:00:00 -- 8 Sudoeste 21 Sudoeste 0 -- -- 65
2020-03-09 14:00:00 -- 10 Sur 29 Sudeste 0 -- -- 55
2020-03-09 13:00:00 -- 21 Sudeste 37 Sudeste 0 -- -- 72
2020-03-09 12:00:00 -- 23 Sudeste 32 Sudeste 0 -- -- 70
2020-03-09 11:00:00 -- 24 Sudeste 31 Sudeste 0 -- -- 73
2020-03-09 10:00:00 -- 6 Sudoeste 21 Sudeste 0 -- -- 47
2020-03-09 09:00:00 -- 5 Sudoeste 39 Norte 0 -- -- 48
2020-03-09 08:00:00 -- 9 Norte 34 Norte 0 -- -- 35
2020-03-09 07:00:00 -- 6 Sudeste 19 Noroeste 0 -- -- 52
2020-03-09 06:00:00 -- 10 Noroeste 15 Noroeste 0 -- -- 37
2020-03-09 05:00:00 -- 7 Norte 16 Noroeste 0 -- -- 35
2020-03-09 04:00:00 -- 8 Norte 22 Norte 0 -- -- 39
2020-03-09 03:00:00 -- 4 Noroeste 14 Nordeste 0 -- -- 87
2020-03-09 02:00:00 -- 2 Sudeste 6 Nordeste 0 -- -- 86
2020-03-09 01:00:00 -- 3 Nordeste 6 Norte 0 -- -- 85
2020-03-09 00:00:00 -- 0 Calma 9 Nordeste 0 -- -- 82
2020-03-08 23:00:00 -- 4 Nordeste 12 Nordeste 0 -- -- 83
2020-03-08 22:00:00 -- 0 Calma 5 Norte 0 -- -- 83
2020-03-08 21:00:00 -- 3 Noroeste 9 Oeste 0 -- -- 81
2020-03-08 20:00:00 -- 5 Oeste 13 Noroeste 0 -- -- 80
2020-03-08 19:00:00 -- 6 Oeste 13 Oeste 0 -- -- 75
2020-03-08 18:00:00 -- 6 Oeste 13 Sudoeste 0 -- -- 58
2020-03-08 17:00:00 -- 7 Sudoeste 15 Sudoeste 0 -- -- 61
2020-03-08 16:00:00 -- 8 Sudoeste 15 Sudoeste 0 -- -- 60
2020-03-08 15:00:00 -- 6 Sudoeste 16 Sudoeste 0 -- -- 57
2020-03-08 14:00:00 -- 9 Sudoeste 16 Sudoeste 0 -- -- 59
2020-03-08 13:00:00 -- 10 Sudoeste 16 Sudoeste 0 -- -- 59
2020-03-08 12:00:00 -- 8 Sur 13 Sur 0 -- -- 59
2020-03-08 11:00:00 -- 5 Sur 7 Sur 0 -- -- 74
2020-03-08 10:00:00 -- 0 Calma 4 Noroeste 0 -- -- 56
2020-03-08 09:00:00 -- 0 Calma 4 Sur 0 -- -- 60
2020-03-08 08:00:00 -- 0 Calma 7 Nordeste 0 -- -- 71
2020-03-08 07:00:00 -- 3 Norte 9 Noroeste 0 -- -- 67
2020-03-08 06:00:00 -- 2 Noroeste 5 Este 0 -- -- 70
2020-03-08 05:00:00 -- 3 Este 9 Norte 0 -- -- 77
2020-03-08 04:00:00 -- 4 Norte 9 Nordeste 0 -- -- 81
2020-03-08 03:00:00 -- 5 Nordeste 10 Nordeste 0 -- -- 80
2020-03-08 02:00:00 -- 3 Noroeste 6 Noroeste 0 -- -- 79
2020-03-08 01:00:00 -- 0 Calma 8 Este 0 -- -- 77
2020-03-08 00:00:00 -- 2 Sudoeste 8 Norte 0 -- -- 75
2020-03-07 23:00:00 -- 4 Nordeste 10 Nordeste 0 -- -- 75
2020-03-07 22:00:00 -- 4 Nordeste 8 Nordeste 0 -- -- 73
2020-03-07 21:00:00 -- 2 Nordeste 5 Norte 0 -- -- 73
2020-03-07 20:00:00 -- 2 Norte 4 Noroeste 0 -- -- 73
2020-03-07 19:00:00 -- 0 Calma 5 Sudeste 0 -- -- 71
2020-03-07 18:00:00 -- 4 Sur 6 Sudoeste 0 -- -- 70
2020-03-07 17:00:00 -- 4 Sur 7 Sur 0 -- -- 57
2020-03-07 16:00:00 -- 5 Sur 10 Sur 0 -- -- 54
2020-03-07 15:00:00 -- 6 Sur 14 Sudeste 0 -- -- 53
2020-03-07 14:00:00 -- 11 Sudeste 17 Sudeste 0 -- -- 50
2020-03-07 13:00:00 -- 12 Sudeste 16 Sudeste 0 -- -- 52
2020-03-07 12:00:00 -- 8 Sudeste 14 Sudeste 0 -- -- 52
2020-03-07 11:00:00 -- 8 Sudeste 14 Sur 0 -- -- 48
2020-03-07 10:00:00 -- 6 Norte 18 Nordeste 0 -- -- 34
2020-03-07 09:00:00 -- 8 Nordeste 14 Nordeste 0 -- -- 39
2020-03-07 08:00:00 -- 3 Nordeste 12 Nordeste 0.8 -- -- 50
2020-03-07 07:00:00 -- 6 Nordeste 16 Norte 0 -- -- 48
2020-03-07 06:00:00 -- 4 Nordeste 12 Norte 0 -- -- 46
2020-03-07 05:00:00 -- 8 Noroeste 29 Norte 0 -- -- 42
2020-03-07 04:00:00 -- 12 Norte 29 Norte 0 -- -- 40
2020-03-07 03:00:00 -- 9 Norte 27 Norte 0 -- -- 39
2020-03-07 02:00:00 -- 11 Norte 28 Norte 0 -- -- 38
2020-03-07 01:00:00 -- 9 Norte 26 Norte 0 -- -- 39
2020-03-07 00:00:00 -- 6 Nordeste 22 Norte 0 -- -- 39
2020-03-06 23:00:00 -- 9 Norte 32 Noroeste 0 -- -- 35
2020-03-06 22:00:00 -- 8 Nordeste 35 Norte 0 -- -- 34
2020-03-06 21:00:00 -- 11 Noroeste 42 Noroeste 0 -- -- 33
2020-03-06 20:00:00 -- 28 Noroeste 53 Oeste 0 -- -- 33
2020-03-06 19:00:00 -- 30 Noroeste 68 Noroeste 0.4 -- -- 35
2020-03-06 18:00:00 -- 38 Noroeste 61 Noroeste 0 -- -- 32
2020-03-06 17:00:00 -- 24 Noroeste 53 Noroeste 0 -- -- 29
2020-03-06 16:00:00 -- 20 Oeste 46 Oeste 0 -- -- 36
2020-03-06 15:00:00 -- 24 Oeste 54 Oeste 0 -- -- 38
2020-03-06 14:00:00 -- 26 Oeste 44 Oeste 0 -- -- 45
2020-03-06 13:00:00 -- 26 Noroeste 52 Noroeste 0 -- -- 34
2020-03-06 12:00:00 -- 30 Noroeste 68 Oeste 0 -- -- 38
2020-03-06 11:00:00 -- 42 Noroeste 71 Noroeste 0 -- -- 39
2020-03-06 10:00:00 -- 39 Noroeste 69 Noroeste 0 -- -- 42
2020-03-06 09:00:00 -- 45 Noroeste 66 Noroeste 0 -- -- 43
2020-03-06 08:00:00 -- 39 Noroeste 56 Noroeste 0 -- -- 47
2020-03-06 07:00:00 -- 30 Noroeste 56 Noroeste 0 -- -- 50
2020-03-06 06:00:00 -- 36 Noroeste 60 Oeste 0 -- -- 48
2020-03-06 05:00:00 -- 36 Noroeste 61 Noroeste 0 -- -- 47
2020-03-06 04:00:00 -- 24 Noroeste 63 Noroeste 0 -- -- 44
2020-03-06 03:00:00 -- 21 Noroeste 47 Noroeste 0 -- -- 44
2020-03-06 02:00:00 -- 19 Noroeste 55 Noroeste 0 -- -- 42
2020-03-06 01:00:00 -- 17 Noroeste 57 Noroeste 0 -- -- 41
2020-03-06 00:00:00 -- 32 Noroeste 70 Noroeste 0 -- -- 41
2020-03-05 23:00:00 -- 27 Noroeste 56 Noroeste 0 -- -- 43
2020-03-05 22:00:00 -- 18 Noroeste 43 Oeste 0 -- -- 48
2020-03-05 21:00:00 -- 23 Noroeste 48 Noroeste 0 -- -- 47
2020-03-05 20:00:00 -- 26 Noroeste 52 Oeste 0 -- -- 43
2020-03-05 19:00:00 -- 24 Oeste 44 Oeste 0 -- -- 43
2020-03-05 18:00:00 -- 21 Noroeste 41 Noroeste 0 -- -- 45
2020-03-05 17:00:00 -- 27 Noroeste 49 Oeste 0 -- -- 45
2020-03-05 16:00:00 -- 23 Oeste 48 Oeste 0 -- -- 45
2020-03-05 15:00:00 -- 23 Oeste 49 Oeste 0 -- -- 46
2020-03-05 14:00:00 -- 24 Oeste 47 Oeste 0 -- -- 55
2020-03-05 13:00:00 -- 27 Oeste 50 Sudoeste 0 -- -- 58
2020-03-05 12:00:00 -- 22 Oeste 41 Oeste 0 -- -- 48
2020-03-05 11:00:00 -- 14 Oeste 29 Oeste 0 -- -- 47
2020-03-05 10:00:00 -- 5 Oeste 13 Oeste 0 -- -- 55
2020-03-05 09:00:00 -- 2 Norte 4 Norte 0 -- -- 72
2020-03-05 08:00:00 -- 2 Noroeste 5 Nordeste 0 -- -- 85
2020-03-05 07:00:00 -- 0 Calma 10 Sudoeste 0 -- -- 82
2020-03-05 06:00:00 -- 5 Sur 13 Sudeste 0 -- -- 83
2020-03-05 05:00:00 -- 10 Sudeste 14 Sudeste 0 -- -- 84
2020-03-05 04:00:00 -- 9 Sudoeste 18 Sudoeste 0 -- -- 79
2020-03-05 03:00:00 -- 4 Oeste 16 Noroeste 0 -- -- 64
2020-03-05 02:00:00 -- 6 Oeste 23 Norte 0 -- -- 67
2020-03-05 01:00:00 -- 8 Noroeste 21 Noroeste 0 -- -- 47
2020-03-05 00:00:00 -- 11 Noroeste 35 Norte 0 -- -- 47
2020-03-04 23:00:00 -- 7 Norte 22 Norte 0 -- -- 47
2020-03-04 22:00:00 -- 5 Nordeste 18 Noroeste 0 -- -- 46
2020-03-04 21:00:00 -- 9 Norte 27 Noroeste 0 -- -- 43
2020-03-04 20:00:00 -- 9 Oeste 19 Noroeste 0 -- -- 51
2020-03-04 19:00:00 -- 9 Noroeste 43 Oeste 0 -- -- 58
2020-03-04 18:00:00 -- 22 Oeste 37 Sudoeste 0 -- -- 50
2020-03-04 17:00:00 -- 6 Oeste 20 Oeste 0 -- -- 57
2020-03-04 16:00:00 -- 6 Sudoeste 17 Sudoeste 0 -- -- 60
2020-03-04 15:00:00 -- 8 Sudoeste 16 Sudoeste 0 -- -- 59
2020-03-04 14:00:00 -- 6 Sur 12 Sur 0 -- -- 63
2020-03-04 13:00:00 -- 8 Sudeste 14 Sudeste 0 -- -- 61
2020-03-04 12:00:00 -- 9 Sudeste 21 Oeste 0 -- -- 53
2020-03-04 11:00:00 -- 10 Oeste 27 Oeste 0 -- -- 48
2020-03-04 10:00:00 -- 8 Oeste 25 Nordeste 0 -- -- 46
2020-03-04 09:00:00 -- 14 Norte 34 Norte 0 -- -- 51
2020-03-04 08:00:00 -- 14 Norte 37 Nordeste 0 -- -- 55
2020-03-04 07:00:00 -- 14 Norte 28 Norte 0 -- -- 57
2020-03-04 06:00:00 -- 12 Norte 27 Noroeste 0 -- -- 56
2020-03-04 05:00:00 -- 9 Noroeste 30 Oeste 0 -- -- 54
2020-03-04 04:00:00 -- 13 Noroeste 27 Oeste 0 -- -- 54
2020-03-04 03:00:00 -- 19 Noroeste 40 Noroeste 0 -- -- 53
2020-03-04 02:00:00 -- 25 Noroeste 54 Noroeste 0 -- -- 57
2020-03-04 01:00:00 -- 36 Noroeste 66 Noroeste 0 -- -- 53
2020-03-04 00:00:00 -- 42 Noroeste 65 Noroeste 0 -- -- 52
2020-03-03 23:00:00 -- 41 Noroeste 57 Oeste 0 -- -- 51
2020-03-03 22:00:00 -- 38 Noroeste 58 Noroeste 0 -- -- 49
2020-03-03 21:00:00 -- 22 Noroeste 53 Noroeste 0 -- -- 47
2020-03-03 20:00:00 -- 23 Noroeste 67 Oeste 0 -- -- 45
2020-03-03 19:00:00 -- 24 Noroeste 51 Noroeste 0 -- -- 42
2020-03-03 18:00:00 -- 18 Noroeste 35 Noroeste 0 -- -- 36
2020-03-03 17:00:00 -- 19 Noroeste 46 Sudoeste 0 -- -- 30
2020-03-03 16:00:00 -- 27 Oeste 55 Sudoeste 0 -- -- 51
2020-03-03 15:00:00 -- 20 Oeste 45 Oeste 0 -- -- 43
2020-03-03 14:00:00 -- 12 Noroeste 40 Oeste 0 -- -- 29
2020-03-03 13:00:00 -- 25 Noroeste 43 Noroeste 0 -- -- 38
2020-03-03 12:00:00 -- 22 Oeste 40 Oeste 0 -- -- 38
2020-03-03 11:00:00 -- 19 Oeste 38 Oeste 0 -- -- 38
2020-03-03 10:00:00 -- 19 Oeste 33 Oeste 0 -- -- 42
2020-03-03 09:00:00 -- 12 Oeste 35 Oeste 0 -- -- 36
2020-03-03 08:00:00 -- 21 Oeste 35 Oeste 0 -- -- 30
2020-03-03 07:00:00 -- 22 Oeste 40 Oeste 0 -- -- 35
2020-03-03 06:00:00 -- 22 Oeste 40 Noroeste 0 -- -- 41
2020-03-03 05:00:00 -- 31 Noroeste 50 Noroeste 0 -- -- 41
2020-03-03 04:00:00 -- 24 Noroeste 45 Noroeste 0 -- -- 45
2020-03-03 03:00:00 -- 29 Noroeste 48 Noroeste 0 -- -- 46
2020-03-03 02:00:00 -- 23 Noroeste 42 Noroeste 0 -- -- 45
2020-03-03 01:00:00 -- 18 Noroeste 37 Noroeste 0 -- -- 45
2020-03-03 00:00:00 -- 12 Noroeste 41 Oeste 0 -- -- 45
2020-03-02 23:00:00 -- 22 Noroeste 50 Noroeste 0 -- -- 43
2020-03-02 22:00:00 -- 30 Noroeste 54 Oeste 0 -- -- 43
2020-03-02 21:00:00 -- 24 Oeste 45 Oeste 0 -- -- 40
2020-03-02 20:00:00 -- 24 Noroeste 41 Oeste 0 -- -- 38
2020-03-02 19:00:00 -- 20 Noroeste 46 Oeste 0 -- -- 36
2020-03-02 18:00:00 -- 22 Oeste 51 Oeste 0 -- -- 64
2020-03-02 17:00:00 -- 27 Oeste 52 Oeste 0 -- -- 69
2020-03-02 16:00:00 -- 26 Oeste 46 Oeste 0 -- -- 70
2020-03-02 15:00:00 -- 28 Oeste 51 Oeste 0 -- -- 70
2020-03-02 14:00:00 -- 28 Oeste 54 Oeste 0 -- -- 69
2020-03-02 13:00:00 -- 23 Oeste 42 Oeste 0 -- -- 71
2020-03-02 12:00:00 -- 22 Oeste 45 Oeste 0 -- -- 70
2020-03-02 11:00:00 -- 16 Oeste 39 Oeste 0 -- -- 82
2020-03-02 10:00:00 -- 15 Oeste 38 Oeste 0 -- -- 81
2020-03-02 09:00:00 -- 15 Noroeste 42 Oeste 0 -- -- 84
2020-03-02 08:00:00 -- 19 Oeste 49 Oeste 0 -- -- 85
2020-03-02 07:00:00 -- 29 Oeste 54 Oeste 0 -- -- 83
2020-03-02 06:00:00 -- 31 Oeste 51 Oeste 0 -- -- 80
2020-03-02 05:00:00 -- 31 Oeste 49 Oeste 0 -- -- 80
2020-03-02 04:00:00 -- 22 Oeste 37 Oeste 0 -- -- 80
2020-03-02 03:00:00 -- 18 Oeste 33 Oeste 0 -- -- 81
2020-03-02 02:00:00 -- 14 Oeste 35 Oeste 0 -- -- 84
2020-03-02 01:00:00 -- 17 Oeste 31 Oeste 0 -- -- 75
2020-03-02 00:00:00 -- 12 Oeste 22 Oeste 0 -- -- 80